📊 Raw Sensor Data
Showing records 38201 to 38225 of 84,925 total
| ID | Distance (ft) | Battery V | Battery A | Int Temp (°F) | Int Humid (%) | Ext Temp (°F) | Solar V | RSSI | SNR | Time Stamp |
|---|---|---|---|---|---|---|---|---|---|---|
| 46737 | 15.3 | 3.91 | 0 | 72 | 43 | 75 | 5.10 | -71 | 8 | 07/19/2025 10:00 AM |
| 46736 | 15.3 | 3.94 | 0 | 71 | 43 | 74 | 5.10 | -72 | 8 | 07/19/2025 09:45 AM |
| 46735 | 15.3 | 3.92 | 0 | 70 | 43 | 69 | 5.10 | -73 | 8 | 07/19/2025 09:30 AM |
| 46734 | 15.4 | 3.91 | 0 | 69 | 43 | 71 | 5.10 | -72 | 8 | 07/19/2025 09:15 AM |
| 46733 | 15.4 | 3.91 | 0 | 68 | 43 | 72 | 5.10 | -70 | 7 | 07/19/2025 09:00 AM |
| 46732 | 15.6 | 3.91 | 0 | 66 | 43 | 72 | 5.10 | -72 | 8 | 07/19/2025 08:45 AM |
| 46731 | 15.3 | 3.91 | 0 | 65 | 42 | 70 | 5.10 | -71 | 8 | 07/19/2025 08:30 AM |
| 46730 | 15.3 | 3.91 | 0 | 63 | 42 | 72 | 5.10 | -69 | 8 | 07/19/2025 08:15 AM |
| 46729 | 15.1 | 3.97 | 0 | 61 | 42 | 69 | 5.10 | -72 | 7 | 07/19/2025 08:00 AM |
| 46728 | 15.1 | 3.91 | 0 | 59 | 42 | 63 | 5.10 | -71 | 8 | 07/19/2025 07:45 AM |
| 46727 | 15.1 | 3.91 | 0 | 58 | 42 | 60 | 5.10 | -70 | 8 | 07/19/2025 07:30 AM |
| 46726 | 15.0 | 3.98 | 29 | 57 | 42 | 58 | 4.50 | -69 | 8 | 07/19/2025 07:15 AM |
| 46725 | 15.0 | 4.04 | 8 | 56 | 42 | 57 | 4.50 | -71 | 7 | 07/19/2025 07:00 AM |
| 46724 | 15.0 | 3.97 | 7 | 55 | 43 | 56 | 4.50 | -71 | 8 | 07/19/2025 06:45 AM |
| 46723 | 15.0 | 3.79 | 0 | 55 | 43 | 56 | 4.50 | -70 | 7 | 07/19/2025 06:30 AM |
| 46722 | 15.0 | 3.76 | -9 | 54 | 43 | 56 | 4.50 | -71 | 8 | 07/19/2025 06:15 AM |
| 46721 | 15.0 | 3.77 | -10 | 54 | 43 | 55 | 3.60 | -70 | 8 | 07/19/2025 06:00 AM |
| 46720 | 15.0 | 3.91 | -5 | 53 | 43 | 55 | 0.90 | -71 | 8 | 07/19/2025 05:45 AM |
| 46719 | 15.0 | 3.77 | -5 | 53 | 43 | 55 | 0.10 | -72 | 8 | 07/19/2025 05:30 AM |
| 46718 | 15.0 | 3.77 | -5 | 53 | 43 | 55 | 0.00 | -72 | 8 | 07/19/2025 05:15 AM |
| 46717 | 15.0 | 3.77 | -5 | 53 | 43 | 55 | 0.00 | -71 | 8 | 07/19/2025 05:00 AM |
| 46716 | 15.0 | 3.91 | -5 | 53 | 43 | 55 | 0.00 | -71 | 8 | 07/19/2025 04:45 AM |
| 46715 | 15.0 | 3.77 | -5 | 53 | 43 | 54 | 0.00 | -69 | 8 | 07/19/2025 04:30 AM |
| 46714 | 15.0 | 3.77 | -5 | 53 | 43 | 55 | 0.00 | -70 | 8 | 07/19/2025 04:15 AM |
| 46713 | 15.0 | 3.78 | -5 | 53 | 43 | 55 | 0.00 | -70 | 8 | 07/19/2025 04:00 AM |